Home   Weather   West Bromwich   Past weeks

Flag for United Kingdom Past Weather in West Bromwich, England, United Kingdom — Yesterday and Last 2 Weeks

Now
57 °F

Passing clouds.


Feels Like: 56 °F
Forecast: 48 / 59 °F
Wind: 6 mph from West

Location: Birmingham / Airport

Current Time: Sep 29, 2016 at 7:54:06 PM

Latest Report: Sep 29, 2016 at 7:20 PM


Visibility: N/A

Pressure: 29.92 "Hg

Humidity: 63%

Dew Point: 45 °F

Location of West BromwichLocation

Past Weather in West Bromwich — Graph

°F

West Bromwich Temperature Yesterday

Maximum temperature yesterday: 70 °F (at 2:50 PM)
Minimum temperature yesterday: 52 °F (at 4:50 AM)
Average temperature yesterday: 61 °F

High & Low Weather Summary for the Past Weeks

 TemperatureHumidityPressure
High77 °F (Sep 14, 6:20 PM)100% (Sep 15, 12:50 AM)30.24 "Hg (Sep 15, 12:50 AM)
Low45 °F (Sep 23, 4:20 AM)49% (Sep 29, 1:50 PM)29.68 "Hg (Sep 25, 3:20 AM)
Average59 °F84%30.06 "Hg
* Reported Sep 14 6:20 PM — Sep 29 6:50 PM, West Bromwich, Weather by CustomWeather, © 2016

Note: Actual official high and low records may vary slightly from our data, if they occured in-between our weather recording intervals... More about our weather records

Advertising

West Bromwich Weather History for the Previous 24 Hours

Scroll right to see more
 ConditionsComfort  
Time TempWeatherWind HumidityBarometerVisibility
6:50 PM
Thu, Sep 29
59 °FPassing clouds.10 mph55%29.92 "HgN/A
6:20 PM59 °FPassing clouds.12 mph55%29.92 "HgN/A
5:50 PM61 °FPassing clouds.14 mph52%29.89 "HgN/A
5:20 PM61 °FPassing clouds.13 mph52%29.89 "HgN/A
4:50 PM61 °FScattered clouds.14 mph52%29.89 "HgN/A
4:20 PM63 °FScattered clouds.14 mph49%29.89 "HgN/A
3:50 PM63 °FPassing clouds.13 mph52%29.89 "HgN/A
3:20 PM63 °FPassing clouds.14 mph52%29.89 "HgN/A
2:50 PM63 °FPassing clouds.16 mph52%29.89 "HgN/A
2:20 PM64 °FScattered clouds.15 mph49%29.89 "HgN/A
1:50 PM64 °FScattered clouds.17 mph49%29.89 "HgN/A
1:20 PM63 °FScattered clouds.18 mph56%29.89 "HgN/A
12:50 PM64 °FScattered clouds.15 mph56%29.89 "HgN/A
12:20 PM63 °FScattered clouds.14 mph64%29.89 "HgN/A
11:50 AM61 °FScattered clouds.12 mph68%29.89 "HgN/A
11:20 AM61 °FScattered clouds.13 mph68%29.89 "HgN/A
10:50 AM61 °FScattered clouds.13 mph68%29.89 "HgN/A
10:20 AM59 °FPassing clouds.10 mph77%29.92 "HgN/A
9:50 AM59 °FPassing clouds.12 mph77%29.92 "HgN/A
9:20 AM59 °FPassing clouds.12 mph77%29.92 "HgN/A
8:50 AM57 °FPassing clouds.12 mph82%29.89 "HgN/A
8:20 AM59 °FScattered clouds.8 mph94%29.89 "HgN/A
7:50 AM59 °FPassing clouds.7 mph94%29.89 "HgN/A
7:20 AM59 °FScattered showers. Passing clouds.6 mph94%29.89 "HgN/A
6:50 AM59 °FPassing clouds.8 mph94%29.89 "HgN/A
6:20 AM59 °FRain. Passing clouds.12 mph94%29.89 "Hg3 mi
5:50 AM61 °FRain. Overcast.10 mph94%29.89 "Hg2 mi
5:20 AM61 °FDrizzle. Mostly cloudy.7 mph94%29.89 "Hg3 mi
4:50 AM63 °FPassing clouds.9 mph88%29.89 "HgN/A
4:20 AM63 °FPassing clouds.8 mph88%29.92 "HgN/A
3:50 AM63 °FPassing clouds.13 mph88%29.92 "HgN/A
3:20 AM63 °FPartly cloudy.12 mph88%29.92 "HgN/A
2:50 AM63 °FPassing clouds.13 mph88%29.95 "HgN/A
2:20 AM63 °FPassing clouds.13 mph88%29.95 "HgN/A
1:50 AM64 °FOvercast.13 mph83%29.95 "HgN/A
1:20 AM64 °FMostly cloudy.10 mph88%29.98 "HgN/A
12:50 AM64 °FMostly cloudy.13 mph88%29.98 "HgN/A
12:20 AM64 °FOvercast.13 mph88%29.98 "HgN/A
11:50 PM
Wed, Sep 28
64 °FPassing clouds.14 mph94%30.01 "HgN/A
11:20 PM64 °FPassing clouds.14 mph94%30.01 "HgN/A
10:50 PM64 °FPartly cloudy.13 mph94%30.01 "HgN/A
10:20 PM64 °FPassing clouds.10 mph94%30.04 "HgN/A
9:50 PM64 °FPassing clouds.13 mph94%30.04 "HgN/A
9:20 PM64 °FPassing clouds.13 mph94%30.07 "HgN/A
8:50 PM64 °FPassing clouds.10 mph94%30.07 "HgN/A
8:20 PM64 °FPassing clouds.10 mph94%30.07 "HgN/A
7:50 PM64 °FPassing clouds.10 mph94%30.07 "HgN/A
7:20 PM64 °FPassing clouds.14 mph94%30.07 "HgN/A
Weather by CustomWeather, © 2016

See weather overviewHow to use our weather pages